Change the Weather History Date:

Sunday, October 7, 2012

  Actual Average Record
Temperature  
Mean Temperature 38 °F -  
Max Temperature 47 °F 60 °F 84 °F (2007)
Min Temperature 29 °F 38 °F 24 °F (2001)
Degree Days  
Heating Degree Days 26    
Moisture  
Dew Point 31 °F    
Average Humidity 72    
Maximum Humidity 93    
Minimum Humidity 43    
Precipitation  
Precipitation 0.00 in - - ()
Sea Level Pressure  
Sea Level Pressure 30.09 in    
Wind  
Wind Speed 2 mph (West)    
Max Wind Speed 13 mph    
Max Gust Speed 16 mph    
Visibility 10 miles    
Events      
Averages and records for this station are not official NWS values.
T = Trace of Precipitation, MM = Missing Value Source: NWS Daily Summary

Daily Weather History Graph

Daily Weather History Graph

Search for Another Location

Airport or City:

Trip Planner

Search our weather history database for the weather conditions in past years. The results will help you decide how hot, cold, wet, or windy it might be!

Date:

Astronomy

Oct. 07, 2012 Rise Set
Actual Time 7:47 AM EDT 7:11 PM EDT
Civil Twilight 7:18 AM EDT 7:40 PM EDT
Nautical Twilight 6:45 AM EDT 8:13 PM EDT
Astronomical Twilight 6:11 AM EDT 8:46 PM EDT
Moon No Moon Rise 2:31 PM EDT (10/7)
Length of Visible Light 12h 21m
Length of Day
11h 24m
Waning Gibbous, 56% of the Moon is Illuminated
Oct 7
Waning Gibbous
Oct 8
Last Quarter
Oct 15
New
Oct 21
First Quarter
Oct 29
Full

Hourly Weather History & Observations

Time (EDT) Temp. Windchill Dew Point Humidity Pressure Visibility Wind Dir Wind Speed Gust Speed Precip Events Conditions
12:14 AM 40.1 °F - 35.2 °F 83% 30.11 in 10.0 mi Calm Calm - N/A   Overcast
12:35 AM 40.1 °F - 35.6 °F 84% 30.11 in 10.0 mi Calm Calm - N/A   Overcast
12:55 AM 40.1 °F - 35.6 °F 84% 30.11 in 10.0 mi Calm Calm - N/A   Overcast
1:14 AM 40.1 °F - 35.8 °F 85% 30.11 in 10.0 mi Calm Calm - N/A   Overcast
1:35 AM 40.1 °F - 36.0 °F 85% 30.10 in 10.0 mi Calm Calm - N/A   Overcast
1:55 AM 39.9 °F - 36.0 °F 86% 30.11 in 10.0 mi Calm Calm - N/A   Unknown
2:14 AM 40.1 °F 36.9 °F 35.6 °F 84% 30.10 in 10.0 mi SSW 4.6 mph - N/A   Overcast
2:35 AM 39.6 °F - 37.2 °F 91% 30.11 in 10.0 mi Calm Calm - N/A   Overcast
3:14 AM 39.2 °F - 36.9 °F 91% 30.10 in 10.0 mi Calm Calm - N/A   Overcast
3:35 AM 39.2 °F - 37.4 °F 93% 30.10 in 10.0 mi Calm Calm - N/A   Overcast
3:54 AM 38.8 °F - 36.9 °F 93% 30.09 in 10.0 mi Calm Calm - N/A   Overcast
4:14 AM 38.5 °F - 36.7 °F 93% 30.09 in 10.0 mi Calm Calm - N/A   Overcast
4:35 AM 38.5 °F - 36.7 °F 93% 30.09 in 10.0 mi Calm Calm - N/A   Overcast
4:54 AM 38.3 °F - 36.5 °F 93% 30.09 in 10.0 mi Calm Calm - N/A   Overcast
5:15 AM 38.5 °F - 36.5 °F 93% 30.09 in 10.0 mi Calm Calm - N/A   Overcast
5:35 AM 38.5 °F 36.1 °F 36.5 °F 93% 30.09 in 10.0 mi NW 3.5 mph - N/A   Overcast
5:54 AM 38.3 °F 35.9 °F 36.1 °F 92% 30.09 in 10.0 mi NNW 3.5 mph - N/A   Overcast
6:15 AM 38.3 °F 34.8 °F 36.5 °F 93% 30.09 in 10.0 mi NNW 4.6 mph - N/A   Overcast
6:35 AM 38.3 °F - 36.5 °F 93% 30.09 in 10.0 mi Calm Calm - N/A   Overcast
6:54 AM 38.3 °F - 36.5 °F 93% 30.09 in 10.0 mi Calm Calm - N/A   Overcast
7:15 AM 38.3 °F - 36.5 °F 93% 30.09 in 10.0 mi Calm Calm - N/A   Overcast
7:35 AM 38.5 °F - 36.5 °F 93% 30.09 in 10.0 mi Calm Calm - N/A   Overcast
7:54 AM 38.3 °F - 36.5 °F 93% 30.10 in 10.0 mi Calm Calm - N/A   Overcast
8:15 AM 38.3 °F - 36.5 °F 93% 30.10 in 10.0 mi Calm Calm - N/A   Overcast
8:35 AM 38.5 °F - 36.5 °F 93% 30.10 in 10.0 mi Calm Calm - N/A   Overcast
8:54 AM 38.5 °F - 36.5 °F 93% 30.11 in 10.0 mi Calm Calm - N/A   Overcast
9:15 AM 39.4 °F - 37.0 °F 91% 30.11 in 10.0 mi Calm Calm - N/A   Overcast
9:34 AM 39.9 °F - 36.9 °F 89% 30.11 in 10.0 mi Calm Calm - N/A   Overcast
9:54 AM 40.5 °F - 36.1 °F 85% 30.11 in 10.0 mi Calm Calm - N/A   Overcast
10:15 AM 41.0 °F - 35.4 °F 81% 30.11 in 10.0 mi Calm Calm - N/A   Overcast
10:34 AM 41.9 °F 40.0 °F 34.0 °F 73% 30.11 in 10.0 mi NNW 3.5 mph - N/A   Overcast
10:54 AM 42.8 °F 40.1 °F 33.4 °F 70% 30.11 in 10.0 mi WNW 4.6 mph - N/A   Overcast
11:15 AM 43.5 °F 40.9 °F 32.5 °F 65% 30.10 in 10.0 mi NW 4.6 mph - N/A   Overcast
11:34 AM 43.7 °F 41.1 °F 32.2 °F 64% 30.10 in 10.0 mi WNW 4.6 mph - N/A   Overcast
11:54 AM 44.6 °F 42.2 °F 32.0 °F 61% 30.10 in 10.0 mi West 4.6 mph - N/A   Overcast
12:15 PM 44.8 °F 43.3 °F 30.9 °F 58% 30.10 in 10.0 mi NNW 3.5 mph - N/A   Overcast
12:34 PM 44.6 °F 40.2 °F 29.8 °F 56% 30.10 in 10.0 mi West 8.1 mph - N/A   Overcast
12:55 PM 45.3 °F - 30.9 °F 57% 30.10 in 10.0 mi Calm Calm - N/A   Overcast
1:14 PM 46.2 °F 42.7 °F 30.6 °F 54% 30.10 in 10.0 mi NW 6.9 mph - N/A   Overcast
1:34 PM 46.4 °F 42.4 °F 31.3 °F 56% 30.09 in 10.0 mi WNW 8.1 mph - N/A   Overcast
1:55 PM 46.0 °F 40.2 °F 32.0 °F 58% 30.09 in 10.0 mi WNW 12.7 mph - N/A   Overcast
2:14 PM 46.2 °F 42.7 °F 30.4 °F 54% 30.08 in 10.0 mi NW 6.9 mph - N/A   Overcast
2:35 PM 46.0 °F 41.4 °F 31.3 °F 56% 30.08 in 10.0 mi WNW 9.2 mph - N/A   Overcast
2:55 PM 46.6 °F - 30.4 °F 53% 30.08 in 10.0 mi WNW 9.2 mph - N/A   Overcast
3:14 PM 46.8 °F - 28.8 °F 50% 30.08 in 10.0 mi West 10.4 mph 16.1 mph N/A   Overcast
3:35 PM 46.4 °F 41.5 °F 27.7 °F 48% 30.07 in 10.0 mi West 10.4 mph - N/A   Overcast
3:55 PM 46.6 °F - 25.7 °F 44% 30.07 in 10.0 mi NW 6.9 mph - N/A   Overcast
4:14 PM 47.3 °F - 26.1 °F 44% 30.07 in 10.0 mi WSW 6.9 mph - N/A   Overcast
4:35 PM 47.3 °F - 27.5 °F 46% 30.06 in 10.0 mi WSW 8.1 mph - N/A   Overcast
4:55 PM 46.8 °F - 26.4 °F 45% 30.06 in 10.0 mi West 9.2 mph - N/A   Overcast
5:14 PM 46.4 °F 42.4 °F 27.9 °F 48% 30.06 in 10.0 mi West 8.1 mph - N/A   Overcast
5:35 PM 45.9 °F 42.9 °F 28.0 °F 50% 30.06 in 10.0 mi West 5.8 mph - N/A   Overcast
5:55 PM 45.5 °F 42.5 °F 25.2 °F 45% 30.07 in 10.0 mi West 5.8 mph - N/A   Overcast
6:14 PM 45.3 °F 40.6 °F 24.4 °F 44% 30.07 in 10.0 mi West 9.2 mph - N/A   Overcast
6:35 PM 44.6 °F 40.2 °F 23.2 °F 43% 30.07 in 10.0 mi West 8.1 mph - N/A   Overcast
6:55 PM 44.2 °F 40.3 °F 22.8 °F 43% 30.08 in 10.0 mi West 6.9 mph - N/A   Overcast
7:14 PM 43.7 °F 42.1 °F 23.9 °F 46% 30.08 in 10.0 mi West 3.5 mph - N/A   Overcast
7:35 PM 43.0 °F 41.3 °F 24.4 °F 48% 30.08 in 10.0 mi SW 3.5 mph - N/A   Overcast
7:55 PM 42.8 °F 40.1 °F 24.8 °F 49% 30.08 in 10.0 mi WSW 4.6 mph - N/A   Overcast
8:14 PM 42.3 °F 40.5 °F 25.5 °F 52% 30.08 in 10.0 mi WSW 3.5 mph - N/A   Overcast
8:35 PM 41.9 °F - 25.9 °F 53% 30.08 in 10.0 mi Calm Calm - N/A   Overcast
8:55 PM 41.0 °F 39.0 °F 25.7 °F 55% 30.08 in 10.0 mi SW 3.5 mph - N/A   Overcast
9:14 PM 39.4 °F - 26.2 °F 59% 30.08 in 10.0 mi Calm Calm - N/A   Scattered Clouds
9:35 PM 34.5 °F 31.6 °F 25.9 °F 71% 30.09 in 10.0 mi WSW 3.5 mph - N/A   Clear
9:55 PM 32.2 °F 28.9 °F 26.4 °F 79% 30.09 in 10.0 mi SSW 3.5 mph - N/A   Clear
10:14 PM 32.0 °F - 25.9 °F 78% 30.09 in 10.0 mi Calm Calm - N/A   Clear
10:35 PM 32.7 °F - 27.9 °F 82% 30.09 in 10.0 mi Calm Calm - N/A   Clear
10:55 PM 32.0 °F - 27.7 °F 84% 30.10 in 10.0 mi Calm Calm - N/A   Clear
11:14 PM 31.1 °F - 25.7 °F 80% 30.10 in 10.0 mi Calm Calm - N/A   Clear
11:35 PM 30.4 °F - 25.3 °F 82% 30.11 in 10.0 mi Calm Calm - N/A   Clear
11:55 PM 29.1 °F - 24.6 °F 83% 30.11 in 10.0 mi Calm Calm - N/A   Clear